Skip Page Navigation
NASA JPL Caltech
NASA Logo - Jet Propulsion Laboratory + View the NASA Portal
+ Center for Near-Earth Object Studies
JPL Home Earth Solar System Stars & Galaxies Technology
JPL Solar System Dynamics
BODIES ORBITS EPHEMERIDES TOOLS PHYSICAL DATA DISCOVERY FAQ SITE MAP
JPL Small-Body Database Browser
Search: [ help ]  
442987 (2013 CN165)
Classification: Main-belt Asteroid          SPK-ID: 2442987
Ephemeris | Orbit Diagram | Orbital Elements | Mission Design | Physical Parameters | Discovery Circumstances | Close-Approach Data ]

[ show orbit diagram ]
Orbital Elements at Epoch 2459000.5 (2020-May-31.0) TDB
Reference: JPL 12 (heliocentric ecliptic J2000)
 Element Value Uncertainty (1-sigma)   Units 
e .07182685902114269 9.8199e-08  
a 3.111288214176199 6.7672e-08 au
q 2.887814154242422 2.8945e-07 au
i 3.589489323475869 9.4654e-06 deg
node 76.97729729697322 0.00016083 deg
peri 51.90883834802849 0.00017504 deg
M 144.8242603546828 6.7051e-05 deg
tp 2458194.105399730704
(2018-Mar-16.60539973)
0.00037219 TDB
period 2004.512609876138
5.49
6.5398e-05
1.79e-07
d
yr
n .1795947794123605 5.8594e-09 deg/d
Q 3.334762274109975 7.2532e-08 au
  Orbit Determination Parameters
   # obs. used (total)      70  
   data-arc span      4513 days (12.36 yr)  
   first obs. used      2006-12-15  
   last obs. used      2019-04-24  
   planetary ephem.      DE431  
   SB-pert. ephem.      SB431-N16  
   condition code      0  
   norm. resid. RMS      .65992  
   source      ORB  
   producer      Otto Matic  
   solution date      2019-Jul-14 15:02:50  

Additional Information
 Earth MOID = 1.90463 au 
 Jupiter MOID = 1.70161 au 
 T_jup = 3.212 
[ show covariance matrix ]

Ephemeris | Orbit Diagram | Orbital Elements | Mission Design | Physical Parameters | Discovery Circumstances | Close-Approach Data ]

Physical Parameter Table
Parameter Symbol Value Units Sigma Reference Notes
absolute magnitude H 17.0   n/a MPO434646  

442987 (2013 CN165)          Discovered 2011-Nov-17 by Mt. Lemmon Survey at Mount Lemmon
Reference: Last Updated: 2015-09-02

[ show close-approach data ]
Alternate Designations
 2013 CN165 = 2011 WB149 = 2011 WL23 = 2011 YT12 
Ephemeris | Orbit Diagram | Orbital Elements | Mission Design | Physical Parameters | Discovery Circumstances | Close-Approach Data ]
ABOUT SSD CREDITS/AWARDS PRIVACY/COPYRIGHT GLOSSARY LINKS
FirstGov 2020-Jul-13 22:38 UT
(server date/time)  
NASA Home Page
Site Manager:   Ryan S. Park
Webmaster  Alan B. Chamberlin